Flag for Venezuela Weather past 2 weeks in Caracas, Venezuela

Now
86 °F

Passing clouds.


Feels Like: 95 °F
Forecast: 68 / 79 °F
Wind: 6 mph from Northeast

Location: Caracas / Maiquetia Aerop. Intl. Simon Bolivar

Current Time: Jul 2, 2015 at 1:03:43 PM

Latest Report: Jul 2, 2015 at 12:30 PM


Visibility: N/A

Pressure: 29.92 "Hg

Humidity: 70%

Dew point: 75 °F

Location of CaracasLocation

Historic Weather in Caracas — Graph

°F

Caracas temperature yesterday

Maximum temperature yesterday: 88 °F (at 12:30 PM)
Minimum temperature yesterday: 75 °F (at 1:30 AM)
Average temperature yesterday: 80 °F

Past Weeks' High & Low Weather Summary

 TemperatureHumidityPressure
High88 °F (Jun 21, 2:30 PM)100% (Jun 19, 12:30 AM)29.98 "Hg (Jun 19, 12:30 AM)
Low36 °F (Jun 19, 12:30 AM)22% (Jun 18, 8:30 PM)29.80 "Hg (Jun 19, 5:30 PM)
Average80 °F80%29.92 "Hg
* Reported Jun 17 11:30 AM — Jul 2 11:30 AM, Caracas, Weather by CustomWeather, © 2015

Note: Actual official high and low records may vary slightly from our data, if they occured in-between our weather recording intervals... More about our weather records

Advertising

Caracas weather history for previous 24 hours

 ConditionsComfort  
Time TempWeatherWind HumidityBarometerVisibility
11:30 AM
Thu, Jul 2
86 °FPassing clouds.3 mph75%29.95 "HgN/A
10:30 AM84 °FPassing clouds.3 mph70%29.95 "HgN/A
9:30 AM82 °FPassing clouds.5 mph79%29.95 "HgN/A
8:30 AM81 °FPassing clouds.5 mph70%29.95 "HgN/A
7:30 AM77 °FPassing clouds.No wind74%29.92 "HgN/A
6:30 AM77 °FPassing clouds.No wind83%29.95 "HgN/A
5:30 AM77 °FPassing clouds.No wind83%29.92 "HgN/A
4:30 AM77 °FPassing clouds.No wind83%29.92 "HgN/A
3:30 AM77 °FPassing clouds.No wind83%29.92 "HgN/A
2:30 AM79 °FPassing clouds.No wind79%29.92 "HgN/A
1:30 AM77 °FPassing clouds.No wind83%29.92 "HgN/A
12:30 AM77 °FPassing clouds.5 mph83%29.95 "HgN/A
11:30 PM
Wed, Jul 1
77 °FPassing clouds.No wind89%29.95 "HgN/A
10:30 PM79 °FPassing clouds.3 mph84%29.95 "HgN/A
9:30 PM77 °FPassing clouds.7 mph89%29.92 "HgN/A
8:30 PM79 °FPassing clouds.2 mph89%29.89 "HgN/A
7:30 PM79 °FPassing clouds.5 mph89%29.89 "HgN/A
6:30 PM82 °FPassing clouds.3 mph79%29.89 "HgN/A
5:30 PM84 °FPassing clouds.5 mph79%29.89 "HgN/A
4:30 PM86 °FScattered clouds.5 mph75%29.89 "HgN/A
3:30 PM86 °FPassing clouds.5 mph70%29.89 "HgN/A
2:30 PM86 °FPassing clouds.5 mph70%29.92 "HgN/A
1:30 PM88 °FPassing clouds.3 mph70%29.95 "HgN/A
Weather by CustomWeather, © 2015

See weather overviewHow to use our weather pages